Content
SEND FEEDBACK

Daily
Averages
Monthly
Summary
Canada

MONTREAL, QUEBEC


Home > North America > Canada > Quebec
Elevation: 118 feet     Latitude: 45 28N     Longitude: 073 45W

WEATHER
 
SELECT A DAY
Number of Records: 201,452;   Date Range: 1/1/95 - 10/21/14
 
SHARE

PRINT THIS DATA

[ ← Previous Day ]
WEATHER ALMANAC - AUGUST 21, 2013
[ Next Day → ]
[ °C ]   °F
Weather ElementAverageHighLow
Temperature76.5 °F84.2 °F (3:00 pm)68 °F (5:00 am)
Dewpoint64.5 °F66.2 °F (11:00 am)60.8 °F (1:00 am)
Humidity66.3 %83 % (5:00 am)46 % (2:00 pm)
Barometer30.03 in30.09 in (8:00 am)29.93 in (8:00 pm)
Wind Speed12.5 mph17.3 mph (2:00 pm)
Wind Gust25.3 mph (3:00 pm)
Weather ElementAverage
Visibility14.1 mi
Wind DirectionSW (225 °)

Weather ElementTotal
Precipitation---
Cooling Degree Days11.1 (Base 65)
Growing Degree Days26.1 (Base 50)
Averaged from 26 records on August 21, 2013
WEATHER CONDITIONS BREAKOUT
WIND DIRECTION BREAKOUT
WEATHER BY HOUR - AUGUST 21, 2013
[ °C ]   °F
Local TimeTemperatureDewpointHumidityBarometerVisibilityWind DirectionWind SpeedGust SpeedPrecipitationEventsConditions
1:00 AM71.6 °F60.8 °F69 %30.06 in15.0 miSW (230°)9.2 mphClear
2:00 AM71.6 °F60.8 °F69 %30.06 in15.0 miSW (230°)10.4 mphClear
3:00 AM69.8 °F60.8 °F73 %30.06 in15.0 miSW (230°)11.5 mphClear
4:00 AM69.8 °F62.6 °F78 %30.06 in15.0 miWSW (250°)8.1 mphClear
5:00 AM68.0 °F62.6 °F83 %30.06 in15.0 miWSW (240°)5.8 mphClear
6:00 AM68.0 °F62.6 °F83 %30.08 in12.0 miSW (230°)6.9 mphClear
7:00 AM68.0 °F62.6 °F83 %30.08 in12.0 miSW (230°)5.8 mphClear
8:00 AM71.0 °F63.0 °F70 %30.09 in12.0 miSW (230°)10.4 mph
8:00 AM71.6 °F62.6 °F73 %30.09 in12.0 miSW (230°)8.1 mphClear
9:00 AM73.4 °F64.4 °F73 %30.09 in12.0 miWSW (240°)13.8 mphPartly Cloudy
10:00 AM77.0 °F64.4 °F65 %30.09 in15.0 miSW (230°)10.4 mphPartly Cloudy
11:00 AM77.0 °F66.2 °F69 %30.08 in12.0 miSSW (210°)11.5 mphClear
12:00 PM80.6 °F66.2 °F61 %30.07 in12.0 miSSW (210°)13.8 mphPartly Cloudy
1:00 PM82.4 °F66.2 °F58 %30.06 in12.0 miSSW (210°)13.8 mph20.7 mphPartly Cloudy
2:00 PM83.0 °F66.0 °F46 %30.04 in15.0 miSW (220°)17.3 mphScattered Clouds
2:00 PM82.4 °F66.2 °F58 %30.04 in15.0 miSW (220°)17.3 mphPartly Cloudy
3:00 PM84.2 °F66.2 °F55 %30.03 in15.0 miSW (220°)17.3 mph25.3 mphPartly Cloudy
4:00 PM84.2 °F66.2 °F55 %30.01 in15.0 miSW (220°)17.3 mphPartly Cloudy
5:00 PM84.2 °F66.2 °F55 %29.99 in15.0 miSW (220°)17.3 mphPartly Cloudy
6:00 PM82.4 °F66.2 °F58 %29.97 in15.0 miSW (220°)15.0 mphPartly Cloudy
7:00 PM80.6 °F66.2 °F61 %29.94 in15.0 miSW (220°)15.0 mphPartly Cloudy
8:00 PM79.0 °F66.0 °F56 %29.93 in15.0 miSW (220°)13.8 mphClear
8:00 PM78.8 °F66.2 °F65 %29.93 in15.0 miSW (220°)13.8 mphPartly Cloudy
9:00 PM77.0 °F66.2 °F69 %29.94 in15.0 miSW (220°)13.8 mphPartly Cloudy
10:00 PM77.0 °F66.2 °F69 %29.94 in15.0 miSW (220°)13.8 mphClear
11:00 PM75.2 °F64.4 °F69 %29.95 in15.0 miSW (230°)15.0 mphPartly Cloudy
Hourly data recorded from CYUL, located miles away from Montreal, Quebec







STORIES FROM OUR PARTNERS